Weather in Corn Islands

Nicaragua     12°10′00″N   83°01′59″W
temp.,
°C
wind,
m/s
gust,
m/s
humid.,
%
clouds,
%
prec.,
mm/h
press.,
hPa
HPBL,
m
1 march, mon
mon100:00+27ene1011750 0.1 10121150
03:00+27ene10127629 0.1 10101159
06:00+27ene10127424 0.1 10121233
09:00+27ene9117424 0.1 10131232
12:00+27ene8107512 0.2 10121177
15:00+27ene910734 0.6 10101024
18:00+27ene911772 0.8 10111085
21:00+27ene911770 0.4 10131066
2 march, tue
tue200:00+27ene911772 0.8 10121077
03:00+27ene910760 0.6 10111017
06:00+27ene911750 0.6 10121124
09:00+27ene8107534 0.0 10141139
12:00+27ene10117517 0.6 10131069
15:00+27ene8107167 0.0 10111288
18:00+27ene797370 0.0 10121193
21:00+27ene797417 0.1 10141095
3 march, wed
wed300:00+27ene897435 0.4 10131037
03:00+26e777242 0.1 1012942
06:00+26e897329 0.4 10141028
09:00+27e78690 0.0 1015928
12:00+27ene56700 0.0 1014904
15:00+26ene67763 0.9 1012786
18:00+27ene78773 1.3 1012900
21:00+26ene78780 0.0 1015878
4 march, thu
thu400:00+26ne67790 0.1 1014836
03:00+26ne78790 0.3 1014851
06:00+26ne78790 0.4 1014834
09:00+26ne78780 0.1 1016888
12:00+26ne77751 0.2 10141041
15:00+26nne77760 0.1 1012805
18:00+26nne78760 0.2 1013853
21:00+26ne78760 0.0 1014857
5 march, fri
fri500:00+26nne77770 0.0 1013865
03:00+25ne67760 0.0 1012747
06:00+25nne67770 0.0 1013863
09:00+26ne677510 0.0 1015843
12:00+26ne66735 0.0 1013776
15:00+26ne55690 0.0 1010930
18:00+26ne56710 0.0 1011890
21:00+26ene56730 0.0 1013851